Flight Briefing for CPX772

Departure Arrival
Tallinn Airport (EETN)
Click to view FAA NOTAMS
Li├Ęge Airport (EBLG)
Click to view FAA NOTAMS
Departure Time Arrival Time
N/A N/A
Aircraft Distance
B767-300BDSF 856nm
Departure METAR Arrival METAR
EETN 200850Z 21012KT CAVOK 04/M01 Q1018 R08/290195 NOSIG EBLG 200820Z 20005KT 150V230 CAVOK 07/03 Q1034 NOSIG
Suggested Route
TLL Q11 PIMEX P739 KOLJA M864 BUMIL OSB


View recent IFR Routes data
Notes



Charts and Procedures

Charts for EETN
No chart available
Charts for EBLG
No chart available

Windy.com Weather Map